Location: Unspecified
(48.5670°N, 0.0000°E)
Time: 15:52:24
(UTC+00:00)

S-56A Canister/Altair - All Passes

Search period start: 22 August 2019 00:00
Search period end: 01 September 2019 00:00
Orbit: 633 x 2499 km, 38.9° (Epoch: 21 August)

Date Brightness Start Highest point End Pass type
(mag) Time Alt. Az. Time Alt. Az. Time Alt. Az.
22 Aug - 00:45:38 10° WSW 00:49:22 24° S 00:53:51 10° SE night (unlit)
22 Aug - 02:50:20 10° SW 02:52:27 12° SSW 02:54:48 10° S visible
22 Aug - 20:10:14 10° S 20:11:20 11° SSE 20:12:25 10° SE visible
22 Aug - 22:10:30 10° SW 22:14:02 23° S 22:17:41 10° ESE visible
23 Aug - 00:13:14 10° WSW 00:16:52 24° S 00:21:05 10° SE night (unlit)
23 Aug - 02:17:41 10° SW 02:19:52 12° SSW 02:22:17 10° S visible
23 Aug - 21:38:02 10° SW 21:41:35 22° S 21:45:04 10° ESE visible
23 Aug - 23:40:49 10° WSW 23:44:23 24° S 23:48:22 10° SE night (unlit)
24 Aug - 01:45:04 10° SW 01:47:19 13° SSW 01:49:48 10° S night (unlit)
24 Aug - 21:05:32 10° SW 21:09:08 21° SSE 21:12:31 10° ESE visible
24 Aug - 23:08:21 10° WSW 23:11:56 24° S 23:15:45 10° SE night (unlit)
25 Aug - 01:12:27 10° SW 01:14:47 13° SSW 01:17:20 10° S night (unlit)
25 Aug - 20:32:58 10° SW 20:36:40 20° SSE 20:40:00 10° ESE visible
25 Aug - 22:35:49 10° WSW 22:39:29 24° S 22:43:11 10° SE visible
26 Aug - 00:39:50 10° SW 00:42:16 14° SSW 00:44:55 10° SSE night (unlit)
26 Aug - 20:00:20 10° SSW 20:04:10 20° SSE 20:07:32 10° ESE visible
26 Aug - 22:03:14 10° WSW 22:07:01 25° S 22:10:41 10° SE visible
27 Aug - 00:07:12 10° SW 00:09:47 15° SSW 00:12:31 10° SSE night (unlit)
27 Aug - 19:27:39 10° SSW 19:31:40 20° SSE 19:35:06 10° ESE visible
27 Aug - 21:30:35 10° WSW 21:34:34 25° S 21:38:15 10° SE visible
27 Aug - 23:34:33 10° WSW 23:37:18 16° SSW 23:40:10 10° SSE night (unlit)
28 Aug - 18:54:54 10° SSW 18:59:08 19° SSE 19:02:41 10° ESE daylight
28 Aug - 20:57:51 10° WSW 21:02:06 26° S 21:05:51 10° ESE visible
28 Aug - 23:01:51 10° WSW 23:04:51 17° SSW 23:07:51 10° SSE visible
29 Aug - 18:22:04 10° SSW 18:26:35 19° SSE 18:30:16 10° ESE daylight
29 Aug - 20:25:03 10° SW 20:29:38 27° S 20:33:29 10° ESE visible
29 Aug - 22:29:07 10° WSW 22:32:23 19° SSW 22:35:34 10° SSE visible
30 Aug - 17:49:13 10° SSW 17:54:00 19° SSE 17:57:51 10° ESE daylight
30 Aug - 19:52:10 10° SW 19:57:08 28° S 20:01:09 10° ESE visible
30 Aug - 21:56:19 10° WSW 21:59:56 21° SSW 22:03:18 10° SSE visible
31 Aug - 17:16:19 10° SSW 17:21:23 19° SSE 17:25:25 10° ESE daylight
31 Aug - 19:19:12 10° SW 19:24:37 29° S 19:28:50 10° ESE visible
31 Aug - 21:23:27 10° WSW 21:27:30 23° SSW 21:31:04 10° SE visible
